This demonstration page uses our WeatherBlox Daily Observations layout. Learn more.

Left ArrowRight Arrow

Hourly Observations for June 5, 2023

Temp ( °F °C ) Dew Point ( °F °C ) Humidity (%) Winds ( mph kmh ) Pressure ( in mb ) Visibility ( mi km ) Precip ( " mm )
12:53 am 00:53 Mostly Clear 66 18.9 62 16.7 87 87 N 6 9 30.05 1018 8 13 0.00 0.00
1:53 am 01:53 Clear 65 18.3 61 16.1 87 87 Calm 30.05 1018 7 11 0.00 0.00
2:53 am 02:53 Mostly Clear 63 17.2 60 15.6 90 90 Calm 30.06 1018 7 11 0.00 0.00
3:53 am 03:53 Clear 64 17.8 60 15.6 87 87 Calm 30.05 1018 7 11 0.00 0.00
4:53 am 04:53 Clear with Mist and Fog 62 16.7 59 15 90 90 N 3 6 30.06 1018 6 10 0.00 0.00
5:53 am 05:53 Clear with Mist and Fog 62 16.7 58 14.4 86 86 Calm 30.07 1018 6 10 0.00 0.00
6:53 am 06:53 Sunny with Mist and Fog 61 16.1 59 15 93 93 W 3 6 30.09 1019 3 5 0.00 0.00
7:53 am 07:53 Hazy 67 19.4 61 16.1 81 81 Calm 30.09 1019 4 6 0.00 0.00
8:53 am 08:53 Sunny 72 22.2 61 16.1 68 68 NNE 3 6 30.10 1019 7 11 0.00 0.00
9:53 am 09:53 Sunny 75 23.9 60 15.6 60 60 Calm 30.10 1019 10 16 0.00 0.00
10:53 am 10:53 Sunny 78 25.6 58 14.4 50 50 Calm 30.09 1019 10 16 0.00 0.00
11:53 am 11:53 Sunny 80 26.7 56 13.3 44 44 NW 3 6 30.08 1019 10 16 0.00 0.00
12:53 pm 12:53 Sunny 82 27.8 58 14.4 44 44 N 6 9 30.08 1019 10 16 0.00 0.00
1:53 pm 13:53 Sunny 83 28.3 56 13.3 40 40 VRB 5 7 30.06 1018 10 16 0.00 0.00
2:53 pm 14:53 Sunny 84 28.9 56 13.3 38 38 Calm 30.03 1017 10 16 0.00 0.00
3:53 pm 15:53 Sunny 84 28.9 55 12.8 37 37 undefined N/A 30.01 1016 10 16 0.00 0.00
4:53 pm 16:53 Sunny 85 29.4 57 13.9 39 39 VRB 3 6 30.00 1016 10 16 0.00 0.00
5:53 pm 17:53 Sunny 86 30 55 12.8 35 35 Calm 30.00 1016 10 16 0.00 0.00
6:29 pm 18:29 Partly Cloudy with Nearby Thunderstorms 82 27.8 59 15 46 46 NNE 9 15 29.92 1013 10 16 0.00 0.00
6:53 pm 18:53 Sunny 80 26.7 59 15 49 49 NNE 7 11 30.00 1016 10 16 0.00 0.00
7:53 pm 19:53 Cloudy 77 25 62 16.7 60 60 N 5 7 30.00 1016 10 16 0.00 0.00
8:53 pm 20:53 Cloudy 77 25 58 14.4 52 52 E 7 11 30.01 1016 10 16 0.00 0.00
9:53 pm 21:53 Mostly Cloudy 75 23.9 58 14.4 55 55 E 5 7 30.01 1016 10 16 0.00 0.00
10:53 pm 22:53 Clear 72 22.2 57 13.9 59 59 S 5 7 30.02 1017 10 16 0.00 0.00
11:53 pm 23:53 Clear 69 20.6 58 14.4 68 68 SSE 6 9 30.02 1017 10 16 0.00 0.00

Powered by Vaisala Xweather